Theta_e
302 303 304 304 304 304 303 302 301 301 301 302 301 303 302 300 298 297 296 295 294 296 296 298 299 301 301 304 306 305 304 304 303 302 300 299 298 298 298 298 297 296 295 295
302 303 303 303 303 304 304 302 302 301 300 300 301 300 299 299 300 301 299 296 296 296 295 296 298 300 301 304 305 304 304 303 302 301 299 298 297 297 298 297 296 295 294 293
301 301 303 303 304 304 303 304 303 302 301 299 299 300 299 298 298 297 297 299 298 297 297 297 297 299 302 303 303 303 303 302 301 300 298 297 297 297 297 296 295 294 293 292
302 302 303 303 303 304 304 303 304 304 301 302 300 301 301 301 301 299 298 295 297 297 297 298 298 298 300 302 303 302 301 301 300 298 297 297 297 296 295 294 294 293 292 291
299 301 301 303 303 302 302 300 302 302 300 301 301 301 300 301 302 301 300 297 296 296 298 299 299 299 300 301 301 301 300 300 298 297 297 297 296 295 294 293 293 292 292 291
298 298 301 301 301 301 301 302 304 302 302 295 300 299 300 299 302 302 303 298 295 294 298 299 300 299 298 300 300 300 300 299 297 297 296 296 296 295 294 293 292 292 291 290
299 298 299 300 301 302 302 302 305 298 295 298 299 300 300 300 300 303 302 300 295 294 299 299 297 296 296 298 299 299 299 297 296 296 296 296 295 294 293 291 291 291 290 290
300 304 299 299 301 301 302 305 305 297 300 302 300 304 303 302 301 300 299 299 296 297 299 299 298 297 297 297 298 298 298 297 296 296 295 295 294 293 292 291 291 290 289 288
299 301 297 298 300 302 303 303 303 300 291 297 303 303 302 302 300 300 300 298 296 297 298 298 298 297 297 297 298 299 298 296 296 295 295 294 294 293 292 291 291 290 289 288
301 301 298 298 298 299 301 300 306 304 300 295 302 302 305 305 303 301 301 299 297 297 297 297 297 296 297 297 298 298 298 296 296 295 295 294 293 292 292 291 290 290 289 288
301 302 301 298 298 299 300 297 302 306 306 298 297 304 301 304 303 302 301 299 298 297 297 296 296 297 297 297 298 298 296 295 295 294 294 293 292 292 291 291 291 290 289 287
300 304 303 300 299 297 300 299 301 307 305 302 300 307 303 301 299 300 301 299 298 298 297 296 295 294 295 296 297 297 296 295 295 294 294 293 292 291 291 291 291 290 289 288
300 298 295 304 299 297 299 298 300 299 303 307 299 305 301 300 299 299 299 299 298 298 297 295 293 294 294 295 295 296 295 295 294 294 293 292 291 291 291 291 291 291 290 288
301 302 296 304 303 299 299 302 299 301 302 301 305 306 306 307 306 303 299 298 297 296 296 295 294 293 294 294 294 295 294 294 294 293 293 292 291 291 291 292 292 292 290 287
292 293 299 297 302 299 298 299 303 302 301 305 304 303 304 305 305 306 296 297 295 295 296 296 295 293 292 293 293 294 294 294 293 293 292 292 291 291 291 292 292 291 291 287
292 290 292 294 299 304 306 303 298 302 305 305 306 305 300 299 300 298 298 294 295 294 295 296 292 291 291 292 292 293 294 294 293 293 293 291 290 291 291 291 291 290 291 288
288 292 292 292 297 303 307 305 305 298 295 298 301 302 301 300 300 300 299 293 294 294 295 296 294 293 293 292 293 292 294 294 293 292 292 291 290 290 290 289 288 289 289 285
287 288 292 291 291 297 302 301 304 305 305 302 299 300 301 300 301 299 294 296 294 291 291 293 293 293 294 294 294 293 293 293 292 291 291 290 290 290 287 288 287 287 287 284
288 288 290 292 294 297 300 300 301 301 303 302 303 303 303 300 297 297 293 295 297 295 295 294 295 295 295 294 294 293 291 291 291 291 291 291 290 290 286 286 287 286 286 285
290 289 290 293 296 299 299 298 297 302 304 302 301 303 303 296 300 302 295 292 295 295 288 292 297 294 293 293 293 290 289 288 288 291 292 292 291 290 289 287 287 286 286 285
290 293 290 291 295 297 298 296 297 304 303 295 297 298 299 299 299 294 285 285 281 284 287 291 290 291 292 291 291 289 287 286 292 292 292 292 291 291 291 287 286 286 285 283
290 293 294 292 295 297 293 300 301 295 294 294 294 295 297 296 296 290 288 286 284 283 285 288 287 289 291 291 290 288 287 290 290 291 291 291 291 290 290 287 285 285 285 284
290 290 290 293 297 293 291 293 295 294 293 294 293 293 294 295 294 293 294 292 290 287 287 288 289 288 287 288 290 288 289 289 290 290 291 290 290 290 290 287 284 284 285 284
290 290 289 289 291 289 292 294 293 293 291 292 294 293 293 294 294 295 295 294 293 292 288 288 288 287 287 288 289 289 289 290 290 290 289 289 288 288 288 288 285 284 284 284
287 289 288 287 288 289 291 292 293 292 291 292 292 293 292 295 298 298 296 296 295 293 291 292 290 289 290 290 290 290 289 289 289 289 288 288 287 287 287 287 287 284 285 285
286 286 286 286 287 288 290 291 290 291 290 291 291 292 292 294 296 298 296 293 293 289 290 290 289 290 289 289 290 290 289 288 287 287 286 286 285 286 285 285 286 286 285 284
Wind_Speed
2 3 11 12 2 2 2 3 3 3 3 4 8 19 14 10 6 10 9 8 9 14 7 18 25 27 28 31 33 30 26 20 16 13 9 8 6 5 5 9 9 12 14 15
3 9 8 4 5 6 6 3 5 6 3 5 6 14 13 10 12 14 15 11 13 6 7 9 21 26 30 35 34 29 25 21 16 13 9 5 4 4 8 9 11 12 14 15
6 4 1 9 5 6 8 10 6 7 3 4 5 10 7 8 12 8 10 11 11 17 14 10 13 25 33 37 36 31 25 21 16 12 9 5 3 4 6 8 12 12 14 15
6 5 3 3 5 7 4 7 11 7 2 4 1 6 5 5 9 7 12 12 14 14 13 13 14 19 30 36 35 29 25 21 16 13 9 6 3 2 5 11 13 13 14 15
6 2 4 6 6 8 7 1 5 3 3 2 3 2 7 2 7 10 11 11 13 16 17 18 18 27 31 37 34 29 24 20 16 12 9 6 3 3 7 9 11 12 14 15
7 2 3 4 2 1 4 5 5 3 2 2 8 8 7 5 10 7 2 7 11 12 15 16 23 25 27 34 31 29 25 20 17 13 9 6 4 4 6 8 11 13 16 17
2 4 3 3 3 2 1 4 2 4 3 6 1 4 12 7 9 6 5 6 8 9 14 16 15 15 23 32 33 30 26 22 19 14 10 7 5 5 5 7 10 14 18 19
4 5 7 4 5 6 6 7 4 7 4 4 2 7 7 7 9 8 8 5 7 9 12 16 17 20 26 30 34 31 27 23 19 15 11 8 6 5 5 6 9 11 14 16
4 5 1 2 1 1 5 4 4 3 2 2 4 7 10 8 10 7 7 6 9 10 11 14 13 20 24 28 35 34 29 23 20 16 13 10 8 7 6 6 8 10 12 12
3 4 1 1 1 0 2 2 3 3 3 5 5 6 6 6 8 5 6 8 8 7 9 10 12 19 24 30 34 32 28 26 21 17 14 11 9 7 5 5 6 8 9 10
3 5 2 2 6 8 2 1 2 5 4 4 2 6 7 10 6 7 8 8 8 8 10 11 11 18 23 29 33 32 27 24 21 18 15 13 11 8 6 5 5 6 7 9
5 4 4 9 4 4 4 8 8 5 6 4 3 11 3 3 6 5 7 7 6 7 8 8 9 16 22 27 32 32 28 25 22 19 16 14 12 9 8 5 3 4 5 7
8 4 1 5 3 2 5 6 4 3 3 14 3 6 2 4 4 6 7 6 7 6 7 7 7 10 17 23 29 31 29 26 23 20 17 16 14 12 10 6 3 2 3 4
6 5 6 10 4 2 5 10 16 6 4 9 21 16 16 17 11 6 6 4 6 6 6 6 7 9 15 23 29 31 30 27 24 22 19 18 17 14 11 7 4 4 2 2
4 5 6 16 20 7 5 7 15 17 23 10 21 20 16 19 20 21 3 3 5 7 8 9 9 8 13 20 26 30 30 28 26 24 22 21 17 16 13 8 4 4 2 3
1 4 12 14 17 19 18 11 10 20 18 26 19 22 12 13 7 6 8 4 7 9 10 9 7 8 11 19 25 30 31 31 28 26 25 22 20 18 14 10 8 5 3 3
3 2 4 6 12 17 13 28 17 6 8 12 15 25 11 18 16 19 16 9 10 11 11 10 12 12 16 24 31 31 34 32 31 29 26 24 23 20 17 13 12 8 6 6
9 6 4 9 6 10 9 11 18 20 24 21 18 16 20 17 17 15 6 7 10 9 8 9 8 10 21 27 30 29 31 33 33 30 28 26 25 22 19 16 15 12 9 9
19 10 5 5 7 17 20 4 8 8 22 16 23 23 28 11 5 14 8 11 12 11 12 11 19 19 21 27 29 30 29 32 34 33 32 30 28 25 22 20 17 15 12 10
11 17 10 6 5 7 5 13 9 4 15 7 9 16 10 7 4 11 4 6 11 9 6 10 17 16 17 23 27 29 28 31 33 37 36 33 30 28 26 22 18 17 15 11
5 5 18 17 10 10 10 12 2 12 4 10 6 7 5 7 6 3 3 3 3 4 7 9 15 16 18 19 25 24 25 30 39 36 34 31 30 30 27 22 21 19 16 13
3 7 5 11 12 15 17 8 3 8 10 12 8 6 8 7 4 1 0 0 1 2 4 8 10 8 10 17 25 21 25 29 29 30 29 29 30 30 27 25 22 20 17 16
4 2 3 5 3 13 15 12 5 10 15 11 10 13 6 1 2 3 3 3 3 4 5 8 13 11 10 14 19 20 20 19 21 23 26 29 30 30 28 27 25 23 21 20
4 3 4 7 10 22 19 7 15 13 16 14 11 11 7 3 4 5 4 3 4 4 3 6 9 8 8 11 15 16 13 14 17 21 25 27 29 29 29 30 28 27 26 24
6 3 4 12 11 13 13 13 13 20 14 15 18 13 9 6 5 2 4 4 3 4 6 5 4 3 2 3 7 11 15 15 16 20 23 26 29 30 31 33 34 34 32 30
10 14 10 13 12 10 14 11 16 19 12 15 14 18 10 3 3 3 2 4 3 3 5 9 11 10 9 6 4 4 7 12 17 20 23 27 28 29 30 30 33 32 31 30
Wind_Direction
267 137 219 207 246 256 184 194 240 247 230 190 232 255 261 264 261 261 242 229 226 224 221 211 199 189 186 187 184 182 180 184 191 191 205 224 234 282 319 333 334 330 328 326
44 239 226 167 195 236 245 272 261 284 241 188 287 270 264 254 249 234 230 222 219 210 199 186 192 188 187 183 183 181 184 187 191 198 203 217 254 291 325 329 333 331 329 330
180 242 304 183 176 199 234 235 244 235 328 242 325 283 240 257 241 234 226 224 208 205 196 181 176 180 181 179 182 183 185 186 188 195 199 211 269 304 325 321 328 334 333 332
237 266 212 179 215 169 251 214 229 232 168 236 95 279 260 254 258 223 234 208 211 202 193 177 176 178 179 183 184 183 184 184 187 192 200 217 246 311 317 319 324 330 332 331
247 250 205 204 221 164 230 127 186 199 187 17 200 7 269 261 278 256 235 214 207 199 186 177 180 180 184 183 181 182 181 183 187 193 201 207 223 285 300 308 313 321 329 329
241 270 221 205 96 309 139 69 51 54 91 316 208 179 268 204 224 250 214 218 202 187 183 176 177 172 176 182 179 180 180 182 188 193 197 210 222 260 287 303 310 326 329 334
258 220 204 173 131 65 241 97 305 339 351 227 40 207 244 252 262 249 256 250 203 176 169 168 162 164 166 176 181 180 182 182 188 191 197 206 224 248 275 297 317 325 331 334
207 295 173 192 203 181 205 157 197 211 216 266 122 235 244 251 269 253 249 218 169 170 176 177 173 170 172 177 182 183 186 187 188 191 197 203 216 235 262 289 307 319 325 327
193 270 50 97 1 128 189 220 182 71 84 32 234 278 288 272 252 252 257 185 185 175 176 176 173 172 172 176 185 189 190 191 190 192 194 203 209 221 247 281 303 317 325 332
277 298 44 76 85 51 183 173 109 78 266 269 274 273 238 299 275 243 242 216 192 174 172 173 174 172 176 183 189 192 195 193 191 193 195 202 206 217 239 272 298 322 332 335
351 180 219 125 202 182 147 250 44 131 185 221 282 259 219 237 342 251 250 224 199 182 183 180 178 177 175 184 190 193 195 191 190 193 192 199 205 212 229 255 300 328 332 335
301 238 235 220 230 219 210 199 176 176 213 239 170 253 200 267 301 302 263 237 205 191 186 177 165 160 169 180 189 194 194 193 197 193 193 197 204 210 224 241 288 323 330 340
339 294 332 301 340 348 223 191 202 121 97 234 176 264 333 297 303 334 291 260 229 204 173 158 151 173 178 180 189 196 196 196 196 194 195 199 204 208 219 224 244 275 318 329
323 234 211 246 258 107 227 205 200 156 199 228 235 257 292 294 282 281 306 260 243 205 201 191 179 185 183 186 191 197 199 198 196 195 197 205 206 207 213 219 236 244 293 323
57 283 331 313 284 256 243 277 218 205 226 202 252 237 244 252 274 288 235 219 194 221 206 204 198 191 185 186 194 200 201 197 198 198 201 209 206 205 209 212 229 248 267 297
87 270 322 305 293 248 251 251 232 226 227 235 256 269 228 262 265 267 261 230 217 217 229 212 199 187 191 193 195 199 202 200 200 202 206 208 206 207 209 210 229 237 252 272
237 267 341 276 343 301 238 225 224 201 220 222 234 245 254 258 244 245 243 205 219 215 213 211 204 201 200 199 201 199 204 201 200 205 207 209 207 210 211 211 232 234 246 268
233 232 232 280 313 265 270 175 205 220 236 227 247 264 255 239 253 250 208 197 229 228 217 215 207 203 215 214 211 208 204 202 202 204 208 211 210 213 214 215 229 234 243 258
217 209 234 240 256 293 296 230 165 178 255 230 237 250 256 261 295 265 202 211 220 212 218 215 210 216 221 218 212 205 199 203 204 207 209 212 212 214 215 219 226 233 237 250
238 210 206 187 252 258 283 239 188 128 268 249 229 248 261 136 235 265 218 209 228 227 171 192 219 224 213 212 205 197 192 197 203 210 212 214 214 216 218 221 224 236 239 241
302 214 209 223 227 268 339 316 172 179 276 323 327 290 258 207 211 234 296 282 255 252 211 191 183 190 204 194 190 186 191 202 212 212 214 216 218 220 221 222 224 232 239 242
272 282 204 214 211 238 8 334 0 323 316 315 318 302 278 252 223 244 343 294 118 138 116 161 151 160 180 189 190 187 201 216 213 213 216 218 220 222 222 223 226 228 230 237
260 320 319 323 328 339 321 291 294 334 309 331 322 318 323 177 180 160 87 89 124 128 124 141 146 146 163 182 196 198 213 221 216 215 219 222 223 223 224 223 225 227 228 233
229 191 266 331 323 332 308 300 328 323 317 328 329 322 319 319 155 116 93 66 76 96 116 134 133 128 158 189 202 217 224 225 223 222 226 227 226 225 226 228 228 229 229 230
259 179 247 258 285 294 287 330 319 315 307 332 340 347 302 324 342 339 133 92 68 75 70 76 81 70 63 193 223 232 234 230 225 231 236 235 233 230 230 231 230 229 234 234
251 260 256 273 288 279 292 301 295 313 319 346 339 323 317 281 301 313 41 81 59 55 75 62 45 30 30 4 325 294 261 241 235 238 240 240 234 233 232 234 238 238 243 246